Location: Unspecified
(52.0000°N, 4.4000°E)
Time: 00:21:26
(UTC+00:00)

COBE Rocket - Pass Details

Date: 14 May 2025
Orbit: 676 x 772 km, 97.1° (Epoch: 22 June)

Event Time Altitude Azimuth Distance (km) Brightness Sun altitude
Rises 22:37:12 0° 10° (N) 3,202 8.4 -17.9°
Reaches altitude 10° 22:39:30 10° 8° (N) 2,287 7.5 -18.0°
Maximum altitude 22:44:30 64° 288° (WNW) 846 4.3 -18.1°
Enters shadow 22:47:44 22° 212° (SSW) 1,623 5.3 -18.3°
